Regional Weather Roundup
Issued by NWS

Home | Current Version | Previous Version | Text Only | Print | Product List | Glossary On
Versions: 1 2 3 4 5 6 7 8 9 10 11 12 13 14 15 16 17 18 19 20 21 22 23 24 25 26 27 28 29 30 31 32 33 34 35 36 37 38 39 40 41 42 43 44 45 46 47 48 49 50
000
ASUS42 KFFC 211703
RWRGA
WEATHER ROUNDUP FOR GEORGIA
NATIONAL WEATHER SERVICE PEACHTREE CITY GA
100 PM EDT MON MAY 21 2018

NOTE: "FAIR" INDICATES FEW OR NO CLOUDS BELOW 12,000 FEET WITH NO
SIGNIFICANT WEATHER AND/OR OBSTRUCTIONS TO VISIBILITY.

* = USE WITH CAUTION. THE STATIONS MARKED WITH AN ASTERISK MAY NOT
REPORT WEATHER SUCH AS PRECIPITATION, FOG, OR THUNDER AND ARE NOT
QUALITY CONTROLLED BY NWS.

THE REMARK "TC" DENOTES TEMPERATURE READING IN DEGREES CELSIUS.

GAZ001>058-211800-
NORTH GEORGIA

CITY           SKY/WX    TMP DP  RH WIND       PRES   REMARKS
ATLANTA        PTSUNNY   78  65  63 SE8       30.17F
ATHENS         FAIR      81  66  60 VRB6      30.19S
CHAMBLEE       PTSUNNY   78  63  59 VRB3      30.17F
PEACHTREE CITY PTSUNNY   78  67  68 E9        30.17F
ROME           FAIR      81  66  60 S6        30.15F
WEST ATLANTA   PTSUNNY   79  66  64 SE7       30.17S
GAINESVILLE    FAIR      79  62  56 S8        30.21F
CARTERSVILLE   FAIR      80  63  55 SE6       30.17F


CITY           SKY/WX    TMP DP  RH WIND       PRES   REMARKS
DALTON*        FAIR      81  63  54 S6        30.18S
LAWRENCEVILLE* PTSUNNY   79  64  60 S5        30.19S
MARIETTA       CLOUDY    79  63  58 SE10      30.17F
KENNESAW*      PTSUNNY   80  64  58 SE9       30.18F
CANTON*        PTSUNNY   81  54  39 SE5       30.20F
BLAIRSVILLE*   FAIR      79  61  53 NE6       30.22F
$$

GAZ059>098-102>109-211800-
CENTRAL GEORGIA

CITY           SKY/WX    TMP DP  RH WIND       PRES   REMARKS
AUGUSTA-BUSH   FAIR      82  68  62 VRB5      30.16F
AUGUSTA-DANIEL FAIR      83  67  58 CALM      30.18F
COLUMBUS       PTSUNNY   80  67  64 E10       30.11F
MACON          PTSUNNY   78  70  76 E8        30.15F
ROBINS AFB     PTSUNNY   79  70  73 E9        30.14F


CITY           SKY/WX    TMP DP  RH WIND       PRES   REMARKS
LAGRANGE*      CLOUDY    80  69  69 SE9       30.14F
SYLVANIA*      FAIR      84  70  63 E3        30.16F HAZE
MILLEDGEVILLE* FAIR      82  70  65 S3        30.16F
$$

GAZ099>101-110>166-211800-
SOUTH GEORGIA

CITY           SKY/WX    TMP DP  RH WIND       PRES   REMARKS
SAVANNAH       PTSUNNY   84  70  62 SE15      30.15F
VALDOSTA       CLOUDY    77  71  82 SE12      30.10F
ALMA           FAIR      84  68  58 SE10      30.11F
ST SIMONS      PTSUNNY   82  75  79 E9        30.14F
FT STEWART     PTSUNNY   84  68  58 SE14G22   30.12F
ALBANY         LGT RAIN  73  70  90 SE7G23    30.11F FOG
HUNTER AFB     PTSUNNY   82  73  73 SE6       30.12F
MOODY AFB      PTSUNNY   79  70  74 SE15      30.10F
BRUNSWICK      PTSUNNY   82  70  65 SE14G22   30.15S


CITY           SKY/WX    TMP DP  RH WIND       PRES   REMARKS
BAINBRIDGE*    FAIR      82  75  78 SE9       30.07F
MOULTRIE*      PTSUNNY   79  70  73 SE9G17    30.10S
VIDALIA*       PTSUNNY   82  68  61 E8        30.14F
WAYCROSS*      HVY RAIN  73  70  90 S13G20    30.14R
DOUGLAS*       CLOUDY    79  70  73 S12       30.13F
$$




USA.gov is the U.S. government's official web portal to all federal, state and local government web resources and services.